FENGYUN 1C DEB, 29848

Orbit data source: Space-Track

FENGYUN 1C DEB, 29848 is space debris in SSO originally from a launch on Mon, 10 May 1999 UTC launched from the Taiyaun Space Center, China (TSC). Fengyun 1C debris stems from the Chinese weather satellite Fengyun-1C, which was intentionally destroyed by a Chinese anti-satellite missile in 2007. This event dramatically increased the amount of space debris, with thousands of trackable fragments posing hazards to satellites and human spaceflight. The Fengyun 1C debris cloud has become a focal point in discussions about space sustainability and the need for international regulations to prevent the creation of new debris.

Loading next visibility...
Identifier
29848, 1999-025ES
Orbit
SSO
Country
Flag of CNCN / PRC
Related business
Manufacturer
Unknown
Mission
Spacecraft
Bus & Motor
Unknown
Mass
Unknown
Launch date (UTC)
1999-05-10 (26 years ago)
Launch vehicle
Unknown
Launch site
Taiyaun Space Center, China (TSC)
Object type
Payload
Rocket body
Debris
Shape & HBR
Unknown shape, 0.1 m
Radar Cross Section
Small (<0.1 m²)

Expand to show TLE details & history
Last TLE update: 14 hours ago

TLE from 14 hours ago
0 FENGYUN 1C DEB
1 29848U 99025ES  25304.64538655  .00003805  00000-0  16764-2 0  9994
2 29848  98.2520 174.0350 0119137  57.3973   3.8949 14.20182339965203
Epoch: 2025-10-31T15:29Z
TLE epoch observation values (Epoch: 2025-10-31T15:29:21.397Z)
Latitude
60.4142°
Longitude
-113.2098°
Altitude
749.381 km
Speed
7.53 km/s
True Right ascension
10h 37m 15s
True Declination
60° 15' 58"
Sunlit
Object was in daylight at epoch
Visualization orbit readout
Latitude
Unknown
Longitude
Unknown
Altitude
Unknown
Speed
Unknown
Apparent Right ascension
Unknown
Apparent Declination
Unknown
Sunlit
N/A
Visualization observer readout
Local Sidereal Time
01:24:38
Azimuth
Unknown
Elevation
Unknown
Doppler factor
Unknown
Orbital elements
Apogee altitude
907.651 km
Perigee altitude
736.094 km
Semi-major axis
7,200.01 km
Eccentricity
0.01191
Inclination
98.252°
RAAN
174.035°
Arg. of periapsis
57.3973°
True anomaly
3.98903°
Mean anomaly
3.8949°
Eccentric anomaly
3.94182°
Mean motion
3.55258 °/min
Orbital period
101.33 mins
BSTAR
0.0016764
Loading maneuver chart data...
Computing Atmospheric mass density...

Documentation

Showing up to 5 results
|